SCP
4 3 2 3 2 3 4 10 9 9 7 6 4 2 1 1 0 0 0 0 0 0
4 5 4 2 5 1 2 6 12 13 8 7 6 3 1 1 0 0 0 0 0 0
5 4 7 8 6 4 5 2 3 11 13 10 8 4 1 0 0 0 0 0 0 0
2 5 4 5 6 6 5 5 6 5 8 12 8 5 2 1 0 0 0 0 0 0
0 1 2 2 3 4 4 5 5 8 9 12 10 5 2 1 1 1 0 0 0 0
0 0 0 2 4 2 3 3 4 4 5 4 6 4 3 1 1 1 0 0 0 0
0 0 0 1 1 3 2 2 3 3 2 3 5 3 3 1 1 1 0 0 0 0
0 -0 0 0 0 0 2 2 2 2 2 3 3 4 2 1 1 1 0 0 0 0
0 0 0 0 0 0 0 1 2 2 2 2 3 3 2 2 2 1 0 0 0 0
0 0 0 0 0 0 0 1 1 1 2 2 2 2 0 0 2 1 0 0 0 0
0 0 0 0 0 0 0 1 1 1 1 1 2 1 0 0 1 1 0 0 0 0
0 0 0 0 0 0 0 0 0 1 1 1 1 1 0 0 1 1 0 0 0 0
0 0 0 0 0 0 0 0 0 0 0 0 0 1 0 0 1 1 0 0 0 0
-0 0 0 0 0 0 0 0 0 0 0 0 1 1 0 0 1 0 0 0 0 0
Wind_Speed_500mb
87 86 87 100 98 79 90 86 94 104 101 84 90 92 86 73 72 64 78 73 64 62
60 79 84 84 84 89 95 86 93 108 110 103 97 104 107 88 76 64 79 83 70 71
30 38 76 80 81 81 86 97 93 89 111 111 108 108 118 107 95 77 77 86 78 77
32 23 39 52 63 72 76 83 86 101 97 113 116 115 118 124 113 97 87 86 87 84
36 37 24 38 54 60 70 76 79 89 97 110 111 115 118 130 128 111 102 97 92 86
39 42 42 36 32 50 60 60 74 80 91 101 108 110 116 130 128 128 117 104 103 92
52 42 46 50 45 45 49 62 69 75 84 92 105 102 114 124 120 114 120 116 108 98
56 61 53 45 59 52 52 55 60 72 75 88 94 105 101 107 112 108 110 111 115 103
60 58 59 55 55 62 60 61 62 61 71 77 83 96 103 109 105 106 108 112 116 103
66 62 62 58 63 69 65 63 69 66 65 69 81 88 94 100 104 114 108 108 109 106
67 69 66 61 62 73 69 65 70 72 70 70 67 82 91 96 100 114 115 111 107 104
69 68 63 63 64 65 76 73 67 70 72 74 78 65 78 90 96 115 121 114 108 108
64 70 64 63 64 72 76 72 71 76 78 80 80 76 66 82 111 110 107 111 113 118
90 84 67 67 66 68 70 76 74 76 72 77 73 75 75 71 85 84 122 121 121 127
Wind_Direction_500mb
260 258 257 246 238 241 233 231 238 234 240 240 226 224 232 237 242 239 228 224 239 237
268 263 263 263 249 246 241 237 241 244 239 244 238 232 230 236 239 235 233 231 235 219
314 284 259 258 256 254 248 246 242 251 246 236 238 238 233 235 237 233 232 230 233 223
329 331 278 264 264 261 258 252 249 250 248 239 234 237 238 238 237 234 230 232 232 229
306 302 316 271 271 271 263 260 255 247 249 244 242 240 243 241 237 233 232 232 233 229
313 312 301 298 280 275 272 273 260 252 246 245 244 240 241 242 243 241 239 233 235 232
313 304 308 301 290 278 282 277 266 261 251 246 242 239 238 239 240 239 243 238 235 231
309 311 298 304 300 286 280 277 278 271 262 255 245 242 236 231 238 238 233 236 236 231
306 306 305 297 301 295 286 281 280 279 272 263 249 245 240 231 230 229 229 231 232 229
305 303 304 300 296 296 296 294 282 281 277 270 259 249 242 235 232 225 233 230 231 226
299 300 298 296 297 303 301 294 290 287 280 274 270 259 249 240 236 225 231 231 228 222
297 296 297 298 297 304 302 299 298 292 288 278 271 272 259 244 233 228 225 226 221 217
295 303 288 293 298 298 298 295 298 294 292 289 274 268 272 251 238 225 207 213 217 218
288 285 299 298 291 297 296 298 297 298 303 299 283 270 266 267 247 236 214 214 213 211
Wind_Speed_850mb
87 86 87 100 98 79 90 86 94 104 101 84 90 92 86 73 72 64 78 73 64 62
60 79 84 84 84 89 95 86 93 108 110 103 97 104 107 88 76 64 79 83 70 71
30 38 76 80 81 81 86 97 93 89 111 111 108 108 118 107 95 77 77 86 78 77
32 23 39 52 63 72 76 83 86 101 97 113 116 115 118 124 113 97 87 86 87 84
36 37 24 38 54 60 70 76 79 89 97 110 111 115 118 130 128 111 102 97 92 86
39 42 42 36 32 50 60 60 74 80 91 101 108 110 116 130 128 128 117 104 103 92
52 42 46 50 45 45 49 62 69 75 84 92 105 102 114 124 120 114 120 116 108 98
56 61 53 45 59 52 52 55 60 72 75 88 94 105 101 107 112 108 110 111 115 103
60 58 59 55 55 62 60 61 62 61 71 77 83 96 103 109 105 106 108 112 116 103
66 62 62 58 63 69 65 63 69 66 65 69 81 88 94 100 104 114 108 108 109 106
67 69 66 61 62 73 69 65 70 72 70 70 67 82 91 96 100 114 115 111 107 104
69 68 63 63 64 65 76 73 67 70 72 74 78 65 78 90 96 115 121 114 108 108
64 70 64 63 64 72 76 72 71 76 78 80 80 76 66 82 111 110 107 111 113 118
90 84 67 67 66 68 70 76 74 76 72 77 73 75 75 71 85 84 122 121 121 127
Wind_Direction_850mb
260 258 257 246 238 241 233 231 238 234 240 240 226 224 232 237 242 239 228 224 239 237
268 263 263 263 249 246 241 237 241 244 239 244 238 232 230 236 239 235 233 231 235 219
314 284 259 258 256 254 248 246 242 251 246 236 238 238 233 235 237 233 232 230 233 223
329 331 278 264 264 261 258 252 249 250 248 239 234 237 238 238 237 234 230 232 232 229
306 302 316 271 271 271 263 260 255 247 249 244 242 240 243 241 237 233 232 232 233 229
313 312 301 298 280 275 272 273 260 252 246 245 244 240 241 242 243 241 239 233 235 232
313 304 308 301 290 278 282 277 266 261 251 246 242 239 238 239 240 239 243 238 235 231
309 311 298 304 300 286 280 277 278 271 262 255 245 242 236 231 238 238 233 236 236 231
306 306 305 297 301 295 286 281 280 279 272 263 249 245 240 231 230 229 229 231 232 229
305 303 304 300 296 296 296 294 282 281 277 270 259 249 242 235 232 225 233 230 231 226
299 300 298 296 297 303 301 294 290 287 280 274 270 259 249 240 236 225 231 231 228 222
297 296 297 298 297 304 302 299 298 292 288 278 271 272 259 244 233 228 225 226 221 217
295 303 288 293 298 298 298 295 298 294 292 289 274 268 272 251 238 225 207 213 217 218
288 285 299 298 291 297 296 298 297 298 303 299 283 270 266 267 247 236 214 214 213 211